Regional Weather Roundup
Issued by NWS

Home | Current Version | Previous Version | Graphics & Text | Print | Product List | Glossary On
Versions: 1 2 3 4 5 6 7 8 9 10 11 12 13 14 15 16 17 18 19 20 21 22 23 24 25 26 27 28 29 30 31 32 33 34 35 36 37 38 39 40 41 42 43 44 45 46 47 48 49 50
000
ASUS44 KMEG 191400
RWRTN
TENNESSEE HOURLY STATE WEATHER ROUNDUP
NATIONAL WEATHER SERVICE MEMPHIS TN
800 AM CST THU JAN 19 2017

TNZ002-004-019-021-049-052-054-088>092-191500-
WEST TENNESSEE

CITY           SKY/WX    TMP DP  RH WIND       PRES   REMARKS
MEMPHIS INTL   LGT RAIN  60  60 100 CALM      29.85R VSB 1/2
NWS MEMPHIS      N/A     58 N/A N/A MISG        N/A
JACKSON        LGT RAIN  53  52  96 E8        29.87F FOG
DYERSBURG      CLOUDY    50  48  93 SE6       29.87F
UNION CITY     CLOUDY   N/A N/A N/A CALM      29.89F
PARIS          MOCLDY    46  45  93 E9        29.91F
$$

TNZ008-025-027-028-033-062-065-066-191500-
NORTH MIDDLE TENNESSEE

CITY           SKY/WX    TMP DP  RH WIND       PRES   REMARKS
NASHVILLE      CLOUDY    48  46  93 NE5       29.99F FOG
SMYRNA         CLOUDY    49  48  97 CALM      30.00F
CROSSVILLE     CLOUDY    47  44  90 CALM      30.04R FOG
$$

TNZ061-075-076-078-094-096-097-191500-
SOUTH MIDDLE TENNESSEE

CITY           SKY/WX    TMP DP  RH WIND       PRES   REMARKS
TULLAHOMA      SUNNY     52  52 100 CALM      29.98F
WINCHESTER     MOSUNNY   54  52  94 E9        29.99S
MCMINNVILLE    CLOUDY    52  52 100 NE5       29.99F
COLUMBIA       PTSUNNY  N/A N/A N/A NE3       29.95R
SHELBYVILLE    CLOUDY    54  54 100 E3        29.98F
$$

TNZ017-018-042-046-047-191500-
NORTHEAST TENNESSEE

CITY           SKY/WX    TMP DP  RH WIND       PRES   REMARKS
TRI CITIES     CLOUDY    39  37  92 CALM      30.09R
$$

TNZ012-013-036-069-073-074-191500-
CENTRAL EAST TENNESSEE

CITY           SKY/WX    TMP DP  RH WIND       PRES   REMARKS
KNOXVILLE      CLOUDY    46  41  82 NE3       30.06R
OAK RIDGE      CLOUDY    46  41  82 VRB3      30.08S
GATLINBURG     SUNNY     43  39  87 CALM      30.07S
$$

TNZ083-085-099-191500-
SOUTHEAST TENNESSEE

CITY           SKY/WX    TMP DP  RH WIND       PRES   REMARKS
CHATTANOOGA    DRIZZLE   50  43  77 E7        30.05S
$$

SKY/WX REPORTED AS FAIR MEANS FEW OR NO CLOUDS BELOW
12 THOUSAND FEET.





USA.gov is the U.S. government's official web portal to all federal, state and local government web resources and services.